Date String (YYYY-MM-DD hh:mm:ss) UTC,Instrument flags,Ambient pressure (hPa),Sample flow (lpm),Bypass flow (lpm),Sample temperature (°C),Ambient temperature (°C),ASC tube jacket temperature (°C),LED temperature (°C),Box temperature (°C),Sample RH (%),Span deviation,Mass concentration (μg/m³),Mass concentration (μg/m³),Mass concentration (μg/m³)
DateTimeUTC,F1_M11,P_M11,Q1_M11,Q2_M11,T1_M11,T2_M11,T3_M11,T4_M11,T5_M11,U1_M11,ZSPAN_M11,X2_M11,X0_M11,X1_M11
2023-05-25 00:00:00,,0828.9,5.00,0.00,29.5,27.5,00.0,37.8,31.1,30.3,0002.5,0015.25,0028.63,0013.88
2023-05-25 00:01:00,,0828.9,5.01,0.00,29.5,27.6,00.0,37.8,31.1,30.5,0002.7,0015.00,0028.04,0013.69
2023-05-25 00:02:00,,0829.0,5.00,0.00,29.5,27.7,00.0,37.8,31.1,30.2,0002.8,0014.74,0027.80,0013.46
2023-05-25 00:03:00,,0829.0,5.00,0.00,29.5,27.8,00.0,37.8,31.1,30.8,0002.8,0014.40,0027.66,0013.19
2023-05-25 00:04:00,,0828.9,4.99,0.00,29.5,27.9,00.0,37.8,31.1,30.9,0002.9,0014.08,0027.53,0012.90
2023-05-25 00:05:00,,0828.9,5.00,0.00,29.5,27.9,00.0,37.8,31.2,30.0,0002.9,0013.79,0027.53,0012.58
2023-05-25 00:06:00,,0828.9,4.99,0.00,29.5,27.9,00.0,37.9,31.1,29.6,0002.9,0013.53,0026.96,0012.28
2023-05-25 00:07:00,,0828.9,4.99,0.00,29.5,27.9,00.0,37.9,31.1,29.4,0002.9,0013.18,0026.14,0011.92
2023-05-25 00:08:00,,0828.9,5.00,0.00,29.5,27.9,00.0,37.9,31.1,29.2,0003.0,0012.76,0025.07,0011.55
2023-05-25 00:09:00,,0829.0,5.00,0.00,29.5,27.9,00.0,37.9,31.1,28.9,0003.0,0012.35,0024.24,0011.18
2023-05-25 00:10:00,,0828.9,5.01,0.00,29.5,27.9,00.0,37.9,31.1,28.2,0003.1,0011.87,0022.67,0010.76
2023-05-25 00:11:00,,0828.9,5.00,0.00,29.5,27.9,00.0,37.9,31.1,27.9,0003.2,0011.45,0021.61,0010.39
2023-05-25 00:12:00,,0828.9,4.99,0.00,29.5,27.9,00.0,37.9,31.1,29.1,0003.2,0010.98,0021.20,0009.99
2023-05-25 00:13:00,,0829.0,4.99,0.00,29.5,27.9,00.0,37.9,31.1,29.3,0003.2,0010.58,0021.00,0009.57
2023-05-25 00:14:00,,0828.9,5.00,0.00,29.5,27.9,00.0,37.9,31.1,28.2,0003.2,0010.07,0020.00,0009.11
2023-05-25 00:15:00,,0828.9,5.00,0.00,29.5,27.9,00.0,37.9,31.1,28.4,0003.3,0009.65,0018.80,0008.69
2023-05-25 00:16:00,,0828.9,5.01,0.00,29.5,27.9,00.0,37.9,31.2,29.1,0003.1,0009.25,0018.33,0008.32
2023-05-25 00:17:00,,0829.0,5.00,0.00,29.5,28.0,00.0,37.9,31.2,27.3,0003.2,0008.90,0017.60,0008.06
2023-05-25 00:18:00,,0828.9,4.99,0.00,29.5,28.0,00.0,37.9,31.2,27.0,0003.3,0008.62,0016.62,0007.82
2023-05-25 00:19:00,,0828.9,5.00,0.00,29.6,28.0,00.0,37.9,31.2,26.6,0003.1,0008.39,0016.17,0007.60
2023-05-25 00:20:00,,0828.9,5.01,0.00,29.6,28.1,00.0,37.9,31.2,26.8,0003.0,0008.17,0016.07,0007.41
2023-05-25 00:21:00,,0828.9,5.00,0.00,29.6,28.1,00.0,37.9,31.2,27.2,0003.0,0008.07,0016.80,0007.30
2023-05-25 00:22:00,,0828.9,5.01,0.00,29.6,28.1,00.0,37.9,31.3,27.2,0003.1,0008.01,0017.69,0007.25
2023-05-25 00:23:00,,0828.9,5.01,0.00,29.6,28.1,00.0,37.9,31.3,26.5,0002.9,0007.96,0017.71,0007.22
2023-05-25 00:24:00,,0828.9,4.99,0.00,29.6,28.1,00.0,37.9,31.3,27.0,0002.8,0007.93,0017.03,0007.21
2023-05-25 00:25:00,,0828.9,5.00,0.00,29.6,28.1,00.0,38.0,31.3,27.1,0003.1,0008.03,0016.98,0007.27
2023-05-25 00:26:00,,0828.9,4.99,0.00,29.6,28.1,00.0,38.0,31.3,26.9,0003.1,0008.07,0016.51,0007.34
2023-05-25 00:27:00,,0828.8,5.00,0.00,29.7,28.2,00.0,38.0,31.3,28.6,0003.1,0008.12,0016.25,0007.39
2023-05-25 00:28:00,,0828.9,5.00,0.00,29.7,28.2,00.0,38.0,31.3,29.5,0003.3,0008.11,0016.46,0007.38
2023-05-25 00:29:00,,0828.9,5.01,0.00,29.7,28.2,00.0,38.0,31.3,29.5,0003.4,0008.06,0016.46,0007.34
2023-05-25 00:30:00,,0828.9,5.00,0.00,29.7,28.3,00.0,38.0,31.3,29.5,0003.5,0008.00,0016.62,0007.30
2023-05-25 00:31:00,,0828.9,4.99,0.00,29.7,28.3,00.0,38.0,31.4,29.6,0003.4,0007.98,0016.72,0007.26
2023-05-25 00:32:00,,0828.9,4.99,0.00,29.7,28.3,00.0,38.0,31.4,29.0,0003.3,0007.99,0015.80,0007.24
2023-05-25 00:33:00,,0828.9,5.00,0.00,29.7,28.3,00.0,38.0,31.4,28.9,0003.5,0007.97,0015.02,0007.23
2023-05-25 00:34:00,,0828.9,5.01,0.00,29.8,28.3,00.0,38.1,31.4,29.1,0003.6,0007.97,0014.81,0007.22
2023-05-25 00:35:00,,0828.9,5.01,0.00,29.8,28.3,00.0,38.1,31.4,29.2,0003.7,0007.98,0014.77,0007.24
2023-05-25 00:36:00,,0828.9,4.99,0.00,29.8,28.3,00.0,38.1,31.4,29.5,0003.5,0007.96,0014.65,0007.22
2023-05-25 00:37:00,,0828.9,4.99,0.00,29.8,28.3,00.0,38.1,31.4,30.0,0003.3,0007.95,0014.89,0007.15
2023-05-25 00:38:00,,0828.9,5.00,0.00,29.8,28.2,00.0,38.1,31.4,29.3,0003.5,0007.99,0015.37,0007.15
2023-05-25 00:39:00,,0829.0,4.99,0.00,29.8,26.7,00.0,38.0,31.3,29.0,0003.5,0008.03,0015.32,0007.21
2023-05-25 00:40:00,,0828.9,5.00,0.00,29.7,25.6,00.0,37.9,31.1,29.1,0003.4,0008.09,0015.10,0007.26
2023-05-25 00:41:00,,0829.0,5.01,0.00,29.6,25.5,00.0,37.9,30.9,29.1,0003.3,0008.12,0015.04,0007.29
2023-05-25 00:42:00,,0829.0,5.01,0.00,29.5,25.7,00.0,37.9,30.9,29.2,0003.3,0008.21,0014.87,0007.37
2023-05-25 00:43:00,,0829.1,5.00,0.00,29.5,26.0,00.0,37.9,30.9,29.5,0003.5,0008.25,0014.95,0007.40
2023-05-25 00:44:00,,0829.1,5.00,0.00,29.5,26.4,00.0,37.9,30.9,30.3,0003.4,0008.28,0015.05,0007.40
2023-05-25 00:45:00,,0829.1,4.99,0.00,29.5,26.7,00.0,37.9,30.9,30.2,0003.6,0008.32,0015.40,0007.42
2023-05-25 00:46:00,,0829.1,5.01,0.00,29.4,26.9,00.0,37.9,31.0,30.6,0003.5,0008.32,0015.61,0007.38
2023-05-25 00:47:00,,0829.2,5.01,0.00,29.4,27.1,00.0,37.9,31.0,30.2,0003.5,0008.31,0015.39,0007.39
2023-05-25 00:48:00,,0829.2,4.99,0.00,29.4,27.3,00.0,37.8,31.0,30.0,0003.5,0008.28,0015.16,0007.41
2023-05-25 00:49:00,,0829.3,4.99,0.00,29.4,27.5,00.0,37.8,31.0,30.0,0003.5,0008.26,0014.77,0007.41
2023-05-25 00:50:00,,0829.4,5.00,0.00,29.5,27.6,00.0,37.8,31.1,30.0,0003.4,0008.25,0014.43,0007.39
2023-05-25 00:51:00,,0829.3,5.00,0.00,29.5,27.7,00.0,37.8,31.1,30.4,0003.4,0008.24,0014.44,0007.38
2023-05-25 00:52:00,,0829.4,5.01,0.00,29.5,27.8,00.0,37.8,31.1,30.1,0003.6,0008.31,0014.62,0007.40
2023-05-25 00:53:00,,0829.4,4.99,0.00,29.5,27.8,00.0,37.8,31.1,30.0,0003.6,0008.32,0014.38,0007.40
2023-05-25 00:54:00,,0829.4,5.00,0.00,29.5,27.9,00.0,37.8,31.1,30.1,0003.5,0008.34,0014.34,0007.42
2023-05-25 00:55:00,,0829.4,4.99,0.00,29.5,27.9,00.0,37.8,31.1,30.4,0003.3,0008.32,0014.01,0007.44
2023-05-25 00:56:00,,0829.4,4.99,0.00,29.5,28.0,00.0,37.9,31.1,30.4,0003.0,0008.27,0013.72,0007.44
2023-05-25 00:57:00,,0829.4,5.00,0.00,29.5,28.0,00.0,37.9,31.1,30.4,0003.1,0008.27,0013.22,0007.46
2023-05-25 00:58:00,,0829.3,5.01,0.00,29.5,28.0,00.0,37.9,31.2,30.6,0003.4,0008.24,0013.23,0007.46
2023-05-25 00:59:00,,0829.3,5.00,0.00,29.5,28.0,00.0,37.9,31.2,30.6,0003.5,0008.24,0013.22,0007.46
